NOAA 16 DEB, 41053

Orbit data source: Space-Track

NOAA 16 DEB, 41053 is space debris in SSO originally from a launch on Thu, 21 Sep 2000 UTC launched from the Air Force Western Test Range (AFWTR). Debris objects in space refer to the collection of defunct objects orbiting the Earth. Examples of debris include non-operational satellites, rocket bodies, and fragments generated from explosions, collisions, or faulty payload assembly.

Loading next visibility...
Identifier
41053, 2000-055L
Orbit
SSO
Country
Flag of USUS
Related business
Manufacturer
Unknown
Mission
Spacecraft
Bus & Motor
Unknown
Mass
Unknown
Launch date (UTC)
2000-09-21 (26 years ago)
Launch vehicle
Unknown
Launch site
Air Force Western Test Range (AFWTR)
Object type
Payload
Rocket body
Debris
Shape & HBR
Unknown shape, 0.2 m
Radar Cross Section
Medium (>0.1 m² and <1 m²)

Expand to show TLE details & history
Last TLE update: 13 hours ago

TLE from 13 hours ago
0 NOAA 16 DEB
1 41053U 00055L   26255.59969160  .00004294  00000-0  99102-3 0  9991
2 41053  98.9906 125.6282 0020690 202.9861 157.0410 14.55706666563083
Epoch: 2026-09-12T14:23Z
TLE epoch observation values (Epoch: 2026-09-12T14:23:33.354Z)
Latitude
-0.00003°
Longitude
-81.86715°
Altitude
723.53 km
Speed
7.486 km/s
True Right ascension
08h 22m 30s
True Declination
0° 00' 00"
Sunlit
Object was in daylight at epoch
Visualization orbit readout
Latitude
Unknown
Longitude
Unknown
Altitude
Unknown
Speed
Unknown
Apparent Right ascension
Unknown
Apparent Declination
Unknown
Sunlit
N/A
Visualization observer readout
Local Sidereal Time
19:40:14
Azimuth
Unknown
Elevation
Unknown
Doppler factor
Unknown
Orbital elements
Apogee altitude
718.849 km
Perigee altitude
689.542 km
Semi-major axis
7,082.333 km
Eccentricity
0.00207
Inclination
98.9906°
RAAN
125.6282°
Arg. of periapsis
202.9861°
True anomaly
157.13326°
Mean anomaly
157.041°
Eccentric anomaly
157.08715°
Mean motion
3.64149 °/min
Orbital period
98.86 mins
BSTAR
0.00099102
Loading maneuver chart data...
Computing Atmospheric mass density...
Loading historical data...
Loading historical data...
Loading historical data...
Loading historical data...
Loading historical data...
Loading historical data...
Loading historical data...

Documentation

Showing up to 5 results
|